Location: Unspecified
(34.2200°S, 149.2400°E)
Time: 22:36:56
(UTC+00:00)

Daily predictions for brighter satellites

Satellite Brightness Start Highest point End
(mag) Time Altitude Azimuth Time Altitude Azimuth Time Altitude Azimuth
CZ-3 Stage 3 4.3 17:09:23 56° ENE 17:09:23 56° ENE 17:28:27 10° E
Cosmos 2263 Rocket 4.3 17:52:29 20° ESE 17:52:29 20° ESE 17:54:34 10° SE
USA 215 4.2 17:46:33 10° ESE 17:52:21 41° ENE 17:52:21 41° ENE
CENTAUR R/B 3.7 17:54:50 41° NNE 17:57:33 55° ENE 18:05:00 10° SE
SL-16 R/B 4.1 18:14:33 10° SE 18:20:09 33° E 18:25:40 10° NNE
ATLAS 2AS CENTAUR R/B 4.3 18:27:33 20° S 18:31:24 30° SE 18:37:40 10° ENE
Hubble Space Telescope 3.4 18:48:35 11° NNE 18:48:35 11° NNE 18:48:57 10° NNE
Cosmos 1513 Rocket 4.4 18:45:57 10° N 18:52:23 88° W 18:58:51 10° S
Cosmos 2227 Rocket 4.2 18:57:44 15° S 18:57:44 15° S 18:58:46 10° S
Cosmos 2237 Rocket 2.8 18:57:07 42° NNW 18:57:07 42° NNW 19:01:09 10° N
IUS R/B (1) 4.3 18:57:01 24° N 18:58:25 30° NNE 19:06:42 10° E
IRS-1D 3.8 18:57:43 10° N 19:01:28 49° NNW 19:01:28 49° NNW
CZ-3 R/B 2.7 18:56:33 31° WNW 19:03:20 62° N 19:09:10 10° ENE
Okean 1-7 Rocket 3.8 19:05:44 58° N 19:05:44 58° N 19:09:22 10° N
SL-24 R/B - RUBIN 2 4.5 19:01:23 10° NNW 19:07:28 79° ENE 19:14:00 10° SSE
SL-16 R/B 2.9 19:08:44 17° S 19:12:56 52° ESE 19:18:27 10° NE
SeaSat 1 4.1 19:13:34 10° SE 19:18:04 35° ENE 19:22:31 10° N
Meteor 1-28 Rocket 4.4 19:15:44 10° SSE 19:18:48 35° E 19:21:49 10° NNE
CZ-4 R/B 3.7 19:14:12 10° N 19:18:54 67° WNW 19:19:52 52° SW
Nadezhda 4 Rocket 4.3 19:12:50 10° S 19:19:01 66° E 19:25:06 10° NNE
Meteor 2-10 4.4 19:19:40 46° WSW 19:20:22 49° W 19:25:51 10° NNW
Meteor 1-5 Rocket 4.4 19:23:36 43° WSW 19:24:13 45° W 19:29:33 10° NNW
Cosmos 1076 Rocket 3.3 19:23:07 45° SSW 19:24:23 76° W 19:28:38 10° N
Cosmos 1825 Rocket 3.6 19:25:20 52° WNW 19:25:20 52° WNW 19:29:22 10° N
Cosmos 1464 Rocket 3.9 19:21:18 10° NNW 19:27:28 68° W 19:33:39 10° S
Cosmos 2219 3.1 19:23:23 10° NNW 19:29:05 67° WSW 19:34:53 10° SSE
OAO 2 Rocket 3.2 19:29:53 43° W 19:31:31 87° S 19:36:30 10° E
Cosmos 2263 Rocket 3.1 19:34:16 29° SW 19:34:16 29° SW 19:38:23 10° S
CZ-4C R/B 3.1 19:29:43 13° S 19:33:33 32° SE 19:37:14 10° ENE
Cosmos 1766 2.9 19:34:37 54° NW 19:34:37 54° NW 19:37:20 10° N
USA 215 3.5 19:29:23 10° SSE 19:35:41 49° SW 19:39:45 22° WNW
Cosmos 2058 Rocket 3.0 19:32:48 10° NNW 19:37:12 67° W 19:41:39 10° S
OAO 3 Rocket 4.0 19:39:17 28° WNW 19:41:02 38° NNW 19:45:30 10° NE
SMAP 3.0 19:38:10 10° NNE 19:42:51 85° WNW 19:47:36 10° SSW
Cosmos 44 Rocket 3.6 19:41:53 16° SSW 19:45:35 62° ESE 19:50:21 10° NE
USA 305 1.9 19:46:00 35° NW 19:47:06 90° SW 19:50:56 10° SE
Cosmos 1844 Rocket 3.2 19:41:45 10° N 19:47:21 63° ENE 19:52:59 10° SSE
BREEZE-M DEB (TANK) 4.3 19:48:13 18° SSW 19:48:13 18° SSW 19:50:13 10° S
CENTAUR R/B 3.6 19:42:13 15° WNW 19:48:23 35° SW 19:54:56 10° SSE
USA 276 3.3 19:47:35 10° NNW 19:50:05 34° NE 19:52:22 10° ESE
Cosmos 1428 Rocket 4.4 19:43:48 10° S 19:50:10 77° W 19:56:25 10° N
Lacrosse 5 rocket 1.0 19:56:17 28° W 19:57:31 43° SW 20:00:40 10° SSE
Meteor 2-6 Rocket 4.2 19:52:19 10° NNW 19:57:56 67° W 20:03:49 10° S
CBERS-1 4.0 19:54:02 10° N 19:59:08 72° WNW 20:04:19 10° SSW
Cosmos 1867 4.1 19:56:43 21° WSW 19:59:44 38° WNW 20:04:41 10° N
Cosmos 1953 Rocket 4.1 19:57:09 15° SSW 20:00:23 37° W 20:04:24 10° NNW
Landsat 7 4.4 19:56:49 10° NNW 20:01:06 36° W 20:05:02 12° SSW
CZ-3 Stage 3 4.0 20:00:28 10° NW 20:01:39 13° N 20:03:13 10° NNE
Cosmos 2082 4.1 19:56:19 10° NW 20:01:41 41° WSW 20:07:07 10° S
USA 267 4.4 19:57:09 10° E 20:03:00 36° SE 20:08:52 10° SSW
SL-16 R/B 3.1 19:58:01 10° S 20:03:35 34° WSW 20:09:05 10° NW
Meteor 1-19 Rocket 4.2 20:01:26 10° N 20:06:50 86° E 20:12:26 10° S
SKYMED 2 3.7 20:02:29 10° SSE 20:06:55 83° ENE 20:11:17 10° N
Cosmos-2242 4.2 20:04:30 10° NW 20:07:41 21° WSW 20:10:54 10° SSW
Cosmos 489 Rocket 4.4 20:03:21 10° NNW 20:09:34 73° WSW 20:15:56 10° SSE
SPOT 1/Viking Rocket 3.5 20:04:36 10° N 20:09:48 74° WNW 20:15:04 10° SSW
Meteor 1-10 Rocket 4.5 20:08:56 10° N 20:14:33 77° E 20:20:21 10° SSE
ARIANE 5 R/B 2.7 20:11:10 10° NNE 20:16:16 77° ESE 20:21:30 10° S
Intelsat 5-1 Rocket 4.3 20:12:53 10° NW 20:16:18 26° NNE 20:22:57 10° ENE
Cosmos 2227 4.1 20:11:29 10° NNW 20:17:05 72° WSW 20:22:45 10° SSE
UNK 4.0 20:13:39 10° S 20:17:57 42° WSW 20:22:13 10° NW
Cosmos 1634 Rocket 4.0 20:13:02 10° NNW 20:19:14 74° W 20:25:28 10° S
Cosmos 1536 3.7 20:18:59 10° SW 20:22:02 25° W 20:25:05 10° NW
ATLAS 2AS CENTAUR R/B 3.0 20:15:30 10° SW 20:22:40 56° WNW 20:29:39 10° N
Resurs 1-3 3.5 20:27:32 10° N 20:31:51 78° W 20:36:14 10° SSW
SJ-6F 4.4 20:30:51 10° NNE 20:34:55 85° W 20:39:03 10° SSW
Cosmos 2208 Rocket 4.1 20:30:13 10° NNW 20:35:35 66° WSW 20:41:03 10° S
Cosmos 1470 3.7 20:39:34 10° SW 20:42:07 20° W 20:44:39 10° NW
Cosmos 1484 Rocket 4.3 20:40:25 10° NW 20:42:11 14° W 20:43:58 10° WSW
YAOGAN 1 2.5 20:39:25 10° N 20:43:40 74° WNW 20:47:59 10° SSW
